Home   Weather   Cap à Ross   Past weeks
Flag for Saint Pierre and Miquelon

Past Weather in Cap à Ross, Saint Pierre and Miquelon — Yesterday and Last 2 Weeks

Currently: 25 °F. Overcast. (Weather station: Saint-Pierre, Saint Pierre and Miquelon). See more current weather

Past Weather in Cap à Ross — Graph

°F

Cap à Ross Temperature Yesterday

Maximum temperature yesterday: 41 °F (at 12:00 pm)
Minimum temperature yesterday: 32 °F (at 12:00 am)
Average temperature yesterday: 37 °F

High & Low Weather Summary for the Past Weeks

 TemperatureHumidityPressure
High43 °F (Feb 24, 10:00 pm)100% (Feb 14, 10:00 pm)30.57 "Hg (Feb 14, 10:00 pm)
Low18 °F (Feb 21, 10:00 pm)58% (Feb 21, 4:30 am)28.77 "Hg (Feb 14, 10:00 pm)
Average29 °F87%29.78 "Hg
* Reported Feb 14 10:00 pm — Feb 29 10:00 pm, Cap à Ross. Weather by CustomWeather, © 2024

Note: Actual official high and low records may vary slightly from our data, if they occured in-between our weather recording intervals... More about our weather records

Cap à Ross Weather History for the Previous 24 Hours

Scroll right to see more
 ConditionsComfort  
Time TempWeatherWind HumidityBarometerVisibility
10:00 pm
Thu, Feb 29
28 °FLight snow. Ice fog.29 mph100%29.65 "Hg1 mi
9:30 pm28 °FSnow. Ice fog.26 mph100%29.65 "Hg1 mi
9:00 pm32 °FHeavy snow. Ice fog.23 mph100%29.62 "Hg2 mi
8:30 pm34 °FLight rain. Mostly cloudy.24 mph100%29.59 "Hg4 mi
8:00 pm37 °FLight rain. Fog.23 mph100%29.59 "Hg3 mi
7:30 pm37 °FLight rain. Fog.17 mph100%29.59 "Hg2 mi
7:00 pm37 °FLight rain. Fog.21 mph100%29.56 "Hg2 mi
6:30 pm41 °FDrizzle. Fog.30 mph100%29.59 "Hg1 mi
6:00 pm41 °FDrizzle. Fog.29 mph100%29.59 "Hg1 mi
5:30 pm41 °FFog.29 mph100%29.56 "Hg1 mi
5:00 pm41 °FFog.29 mph100%29.59 "Hg1 mi
4:30 pm39 °FFog.26 mph100%29.62 "Hg1 mi
4:00 pm41 °FFog.30 mph100%29.62 "Hg1 mi
3:30 pm41 °FFog.28 mph100%29.65 "Hg1 mi
3:00 pm41 °FFog.30 mph100%29.68 "Hg1 mi
2:30 pm39 °FFog.29 mph100%29.71 "Hg0 mi
2:00 pm39 °FFog.29 mph100%29.74 "Hg0 mi
1:30 pm39 °FFog.28 mph100%29.77 "Hg0 mi
1:00 pm39 °FFog.28 mph100%29.83 "Hg0 mi
12:30 pm39 °FFog.26 mph100%29.83 "Hg0 mi
12:00 pm39 °FFog.25 mph100%29.86 "Hg0 mi
11:30 am39 °FFog.26 mph100%29.89 "Hg0 mi
11:00 am37 °FFog.28 mph100%29.92 "Hg0 mi
10:30 am39 °FFog.28 mph100%29.95 "Hg0 mi
10:00 am37 °FFog.28 mph100%29.95 "Hg0 mi
9:30 am37 °FFog.29 mph100%29.98 "Hg0 mi
9:00 am37 °FFog.26 mph100%30.01 "Hg0 mi
8:30 am37 °FFog.25 mph100%30.01 "Hg0 mi
8:00 am37 °FFog.26 mph100%30.04 "Hg0 mi
7:30 am37 °FFog.25 mph100%30.07 "Hg1 mi
7:00 am37 °FFog.28 mph100%30.07 "Hg1 mi
6:30 am39 °FFog.29 mph100%30.07 "Hg1 mi
6:00 am37 °FFog.28 mph100%30.09 "Hg1 mi
5:30 am37 °FFog.28 mph100%30.09 "Hg1 mi
5:00 am37 °FFog.30 mph100%30.09 "Hg1 mi
4:30 am37 °FFog.30 mph100%30.12 "Hg3 mi
4:00 am37 °FMostly cloudy.29 mph100%30.15 "Hg4 mi
3:30 am37 °FPassing clouds.26 mph100%30.18 "Hg4 mi
3:00 am37 °FPartly cloudy.26 mph100%30.21 "Hg5 mi
2:30 am37 °FPassing clouds.25 mph93%30.21 "Hg5 mi
2:00 am37 °FPassing clouds.28 mph93%30.24 "Hg6 mi
1:30 am39 °FClear.29 mph87%30.27 "Hg6 mi
1:00 am39 °FOvercast.26 mph87%30.27 "Hg5 mi
12:30 am37 °FClear.25 mph93%30.30 "Hg4 mi
12:00 am39 °FClear.28 mph87%30.30 "Hg5 mi
11:30 pm
Wed, Feb 28
37 °FClear.25 mph93%30.30 "Hg5 mi
11:00 pm37 °FClear.25 mph87%30.33 "Hg6 mi
Weather by CustomWeather, © 2024

See weather overview